Lufkin, TX

9:04 PM CST on November 16, 2019 (GMT -0600)
Angelina County

Weather History for KLFK - October, 2019

Change the Weather History Date:

Monday, October 21, 2019

  Actual Average Record
Temperature  
Mean Temperature 65 °F 66 °F  
Max Temperature 79 °F 78 °F 93 °F (1934)
Min Temperature 51 °F 54 °F 32 °F (1976)
Degree Days  
Heating Degree Days 0 3  
Month to date heating degree days 24 29  
Since 1 July heating degree days 24 33  
Cooling Degree Days 0 4  
Month to date cooling degree days 160 117  
Year to date cooling degree days 2624 2514  
Growing Degree Days 15 (Base 50)    
Moisture  
Dew Point 60 °F    
Average Humidity 77    
Maximum Humidity 97    
Minimum Humidity 33    
Precipitation  
Precipitation 0.51 in 0.19 in 1.57 in (1990)
Month to date precipitation 3.08 3.07  
Year to date precipitation 36.07 37.74  
Snow  
Snow 0.00 in - - ()
Month to date snowfall 0.0  
Since 1 July snowfall 0.0  
Since 1 September snowfall 0.0  
Snow Depth 0.00 in    
Sea Level Pressure  
Sea Level Pressure 29.83 in    
Wind  
Wind Speed 7 mph ()    
Max Wind Speed 23 mph    
Max Gust Speed 32 mph    
Visibility 8.8 miles    
Events Rain , Thunderstorm    
T = Trace of Precipitation, MM = Missing Value Source: Averaged Metar Reports

Daily Weather History Graph

Daily Weather History Graph

Search for Another Location

Airport or City:

Astronomy

Oct. 21, 2019 Rise Set
Actual Time 7:25 AM CDT 6:40 PM CDT
Civil Twilight 7:01 AM CDT 7:05 PM CDT
Nautical Twilight 6:33 AM CDT 7:33 PM CDT
Astronomical Twilight 6:04 AM CDT 8:01 PM CDT
Moon 12:06 AM CDT (10/21) 2:31 PM CDT (10/21)
Length of Visible Light 12h 04m
Length of Day
11h 14m
Waning Gibbous, 48% of the Moon is Illuminated
Oct 21
Waning Gibbous
Oct 27
New
Nov 4
First Quarter
Nov 12
Full
Nov 19
Last Quarter

Hourly Weather History & Observations

Time (CDT) Temp. Dew Point Humidity Pressure Visibility Wind Dir Wind Speed Gust Speed Precip Events Conditions
12:53 AM 79.0 °F 73.0 °F 82% 29.70 in 10.0 mi South 12.7 mph 21.9 mph N/A   Overcast
1:53 AM 79.0 °F 73.0 °F 82% 29.69 in 10.0 mi South 12.7 mph - N/A   Overcast
2:22 AM 79.0 °F 73.0 °F 82% 29.71 in 10.0 mi South 11.5 mph 21.9 mph N/A   Scattered Clouds
2:38 AM 79.0 °F 73.0 °F 82% 29.72 in 10.0 mi South 9.2 mph - N/A   Mostly Cloudy
2:53 AM 79.0 °F 73.0 °F 82% 29.70 in 10.0 mi South 9.2 mph - N/A   Overcast
3:53 AM 79.0 °F 73.0 °F 82% 29.70 in 10.0 mi South 9.2 mph - N/A   Overcast
4:11 AM 78.1 °F 73.0 °F 84% 29.70 in 10.0 mi South 8.1 mph - 0.00 in   Mostly Cloudy
4:53 AM 78.1 °F 73.0 °F 84% 29.69 in 10.0 mi South 6.9 mph - 0.00 in   Mostly Cloudy
5:35 AM 68.0 °F 63.0 °F 84% 29.77 in 4.0 mi WNW 13.8 mph 27.6 mph 0.12 in Rain , Thunderstorm Heavy Rain
5:43 AM 64.9 °F 62.1 °F 90% 29.78 in 2.0 mi NW 16.1 mph 26.5 mph 0.25 in Rain , Thunderstorm Heavy Rain
5:53 AM 64.0 °F 62.1 °F 93% 29.77 in 2.5 mi NW 13.8 mph 26.5 mph 0.38 in Rain , Thunderstorm Heavy Rain
5:58 AM 64.0 °F 62.1 °F 93% 29.79 in 3.0 mi NW 6.9 mph 21.9 mph 0.04 in Rain Heavy Rain
6:06 AM 63.0 °F 62.1 °F 97% 29.78 in 4.0 mi NW 8.1 mph - 0.07 in Rain Rain
6:18 AM 63.0 °F 61.0 °F 93% 29.79 in 6.0 mi Calm Calm - 0.09 in Rain Rain
6:53 AM 64.0 °F 61.0 °F 90% 29.77 in 10.0 mi SSE 3.5 mph - 0.10 in Rain Light Rain
7:53 AM 64.0 °F 61.0 °F 90% 29.77 in 10.0 mi NNE 3.5 mph - 0.03 in Rain Light Rain
8:39 AM 64.0 °F 61.0 °F 90% 29.80 in 10.0 mi NW 4.6 mph - 0.00 in Rain Light Rain
8:53 AM 64.0 °F 62.1 °F 93% 29.80 in 10.0 mi NW 5.8 mph - 0.00 in   Mostly Cloudy
9:53 AM 64.0 °F 61.0 °F 90% 29.86 in 10.0 mi WNW 3.5 mph - N/A   Partly Cloudy
10:53 AM 66.0 °F 62.1 °F 87% 29.87 in 10.0 mi NNW 4.6 mph - N/A   Partly Cloudy
11:28 AM 68.0 °F 60.1 °F 76% 29.89 in 10.0 mi NW 6.9 mph - N/A   Mostly Cloudy
11:48 AM 71.6 °F 60.8 °F 69% 29.89 in 10.0 mi Variable 4.6 mph - N/A   Mostly Cloudy
11:53 AM 70.0 °F 60.1 °F 71% 29.88 in 10.0 mi NW 6.9 mph - N/A   Mostly Cloudy
12:19 PM 72.0 °F 60.1 °F 66% 29.88 in 10.0 mi North 8.1 mph - N/A   Partly Cloudy
12:53 PM 73.0 °F 59.0 °F 61% 29.86 in 10.0 mi WNW 6.9 mph - N/A   Partly Cloudy
1:53 PM 75.0 °F 54.0 °F 48% 29.85 in 10.0 mi North 5.8 mph - N/A   Clear
2:53 PM 77.0 °F 50.0 °F 39% 29.83 in 10.0 mi North 8.1 mph - N/A   Clear
3:53 PM 77.0 °F 46.0 °F 33% 29.84 in 10.0 mi NNW 8.1 mph - N/A   Clear
4:53 PM 75.9 °F 46.0 °F 35% 29.84 in 10.0 mi North 6.9 mph - N/A   Clear
5:53 PM 73.9 °F 46.0 °F 37% 29.86 in 10.0 mi North 5.8 mph - N/A   Clear
6:53 PM 64.0 °F 51.1 °F 63% 29.90 in 10.0 mi Calm Calm - N/A   Clear
7:53 PM 60.1 °F 54.0 °F 80% 29.94 in 10.0 mi Calm Calm - N/A   Clear
8:53 PM 55.9 °F 53.1 °F 90% 29.99 in 7.0 mi Calm Calm - N/A   Clear
9:53 PM 57.9 °F 50.0 °F 75% 30.02 in 10.0 mi NW 3.5 mph - N/A   Clear
10:53 PM 55.9 °F 48.9 °F 77% 30.05 in 10.0 mi NW 3.5 mph - N/A   Clear
11:53 PM 52.0 °F 48.0 °F 86% 30.05 in 10.0 mi Calm Calm - N/A   Clear